owner,sensor,date,latitude,longitude,vertical_datum,sea_water_practical_salinity,qcFlag 
COMPS,ioos:station:USF.COMPS:C10:1,2019-02-01T03:05:00Z,27.1690,-82.9260,,35.25,1111122 
COMPS,ioos:station:USF.COMPS:C10:1,2019-02-01T03:35:00Z,27.1690,-82.9260,,35.25,1111122 
COMPS,ioos:station:USF.COMPS:C10:1,2019-02-01T06:05:00Z,27.1690,-82.9260,,34.77,1111122 
COMPS,ioos:station:USF.COMPS:C10:1,2019-02-01T06:35:00Z,27.1690,-82.9260,,35.29,1111122 
COMPS,ioos:station:USF.COMPS:C10:1,2019-02-01T07:05:00Z,27.1690,-82.9260,,35.22,1111122 
COMPS,ioos:station:USF.COMPS:C10:1,2019-02-01T07:35:00Z,27.1690,-82.9260,,35.3,1111122 
COMPS,ioos:station:USF.COMPS:C10:1,2019-02-01T09:05:00Z,27.1690,-82.9260,,35.24,1111122 
COMPS,ioos:station:USF.COMPS:C10:1,2019-02-01T09:35:00Z,27.1690,-82.9260,,35.25,1111122 
COMPS,ioos:station:USF.COMPS:C10:1,2019-02-01T10:05:00Z,27.1690,-82.9260,,35.25,1111122 
COMPS,ioos:station:USF.COMPS:C10:1,2019-02-01T10:35:00Z,27.1690,-82.9260,,35.23,1111122 
COMPS,ioos:station:USF.COMPS:C10:1,2019-02-01T11:05:00Z,27.1690,-82.9260,,35.24,1111122 
COMPS,ioos:station:USF.COMPS:C10:1,2019-02-01T11:35:00Z,27.1690,-82.9260,,35.23,1111122 
COMPS,ioos:station:USF.COMPS:C10:1,2019-02-01T12:05:00Z,27.1690,-82.9260,,35.22,1111122 
COMPS,ioos:station:USF.COMPS:C10:1,2019-02-01T12:35:00Z,27.1690,-82.9260,,35.22,1111122 
COMPS,ioos:station:USF.COMPS:C10:1,2019-02-01T13:05:00Z,27.1690,-82.9260,,35.22,1111122 
COMPS,ioos:station:USF.COMPS:C10:1,2019-02-01T13:35:00Z,27.1690,-82.9260,,35.29,1111122 
COMPS,ioos:station:USF.COMPS:C10:1,2019-02-01T16:05:00Z,27.1690,-82.9260,,35.29,1111122 
COMPS,ioos:station:USF.COMPS:C10:1,2019-02-01T16:35:00Z,27.1690,-82.9260,,35.27,1111122 
COMPS,ioos:station:USF.COMPS:C10:1,2019-02-01T17:05:00Z,27.1690,-82.9260,,35.3,1111122 
COMPS,ioos:station:USF.COMPS:C10:1,2019-02-01T17:35:00Z,27.1690,-82.9260,,35.33,1111122 
COMPS,ioos:station:USF.COMPS:C10:1,2019-02-01T19:05:00Z,27.1690,-82.9260,,35.36,1111122 
COMPS,ioos:station:USF.COMPS:C10:1,2019-02-01T19:35:00Z,27.1690,-82.9260,,35.3,1111122 
COMPS,ioos:station:USF.COMPS:C10:1,2019-02-01T20:05:00Z,27.1690,-82.9260,,35.33,1111122 
COMPS,ioos:station:USF.COMPS:C10:1,2019-02-01T20:35:00Z,27.1690,-82.9260,,35.35,1111122 
COMPS,ioos:station:USF.COMPS:C10:1,2019-02-01T21:05:00Z,27.1690,-82.9260,,35.31,1111122 
COMPS,ioos:station:USF.COMPS:C10:1,2019-02-01T21:35:00Z,27.1690,-82.9260,,35.27,1111122 
COMPS,ioos:station:USF.COMPS:C10:1,2019-02-01T22:05:00Z,27.1690,-82.9260,,35.28,1111122 
COMPS,ioos:station:USF.COMPS:C10:1,2019-02-01T22:35:00Z,27.1690,-82.9260,,35.29,1111122 
COMPS,ioos:station:USF.COMPS:C10:1,2019-02-01T23:05:00Z,27.1690,-82.9260,,35.34,1111122 
COMPS,ioos:station:USF.COMPS:C10:1,2019-02-01T23:35:00Z,27.1690,-82.9260,,35.28,1111122 
COMPS,ioos:station:USF.COMPS:C10:1,2019-02-02T00:05:00Z,27.1690,-82.9260,,35.29,1111122 
COMPS,ioos:station:USF.COMPS:C10:1,2019-02-02T00:35:00Z,27.1690,-82.9260,,35.32,1111122 
COMPS,ioos:station:USF.COMPS:C10:1,2019-02-02T02:05:00Z,27.1690,-82.9260,,35.28,1111122 
COMPS,ioos:station:USF.COMPS:C10:1,2019-02-02T02:35:00Z,27.1690,-82.9260,,35.3,1111122 
COMPS,ioos:station:USF.COMPS:C10:1,2019-02-02T03:05:00Z,27.1690,-82.9260,,35.33,1111122 
COMPS,ioos:station:USF.COMPS:C10:1,2019-02-02T03:35:00Z,27.1690,-82.9260,,35.28,1111122 
COMPS,ioos:station:USF.COMPS:C10:1,2019-02-02T05:05:00Z,27.1690,-82.9260,,35.28,1111122 
COMPS,ioos:station:USF.COMPS:C10:1,2019-02-02T05:35:00Z,27.1690,-82.9260,,35.29,1111122 
COMPS,ioos:station:USF.COMPS:C10:1,2019-02-02T06:05:00Z,27.1690,-82.9260,,35.24,1111122 
COMPS,ioos:station:USF.COMPS:C10:1,2019-02-02T06:35:00Z,27.1690,-82.9260,,35.22,1111122 
COMPS,ioos:station:USF.COMPS:C10:1,2019-02-02T07:05:00Z,27.1690,-82.9260,,35.27,1111122 
COMPS,ioos:station:USF.COMPS:C10:1,2019-02-02T07:35:00Z,27.1690,-82.9260,,35.28,1111122 
COMPS,ioos:station:USF.COMPS:C10:1,2019-02-02T08:05:00Z,27.1690,-82.9260,,35.22,1111122 
COMPS,ioos:station:USF.COMPS:C10:1,2019-02-02T08:35:00Z,27.1690,-82.9260,,35.25,1111122 
COMPS,ioos:station:USF.COMPS:C10:1,2019-02-02T09:05:00Z,27.1690,-82.9260,,35.28,1111122 
COMPS,ioos:station:USF.COMPS:C10:1,2019-02-02T09:35:00Z,27.1690,-82.9260,,35.21,1111122 
COMPS,ioos:station:USF.COMPS:C10:1,2019-02-02T10:05:00Z,27.1690,-82.9260,,35.21,1111122 
COMPS,ioos:station:USF.COMPS:C10:1,2019-02-02T10:35:00Z,27.1690,-82.9260,,35.26,1111122 
COMPS,ioos:station:USF.COMPS:C10:1,2019-02-02T11:05:00Z,27.1690,-82.9260,,35.27,1111122 
COMPS,ioos:station:USF.COMPS:C10:1,2019-02-02T11:35:00Z,27.1690,-82.9260,,35.25,1111122 
COMPS,ioos:station:USF.COMPS:C10:1,2019-02-02T12:05:00Z,27.1690,-82.9260,,35.26,1111122 
COMPS,ioos:station:USF.COMPS:C10:1,2019-02-02T12:35:00Z,27.1690,-82.9260,,35.25,1111122 
COMPS,ioos:station:USF.COMPS:C10:1,2019-02-02T13:05:00Z,27.1690,-82.9260,,35.25,1111122 
COMPS,ioos:station:USF.COMPS:C10:1,2019-02-02T13:35:00Z,27.1690,-82.9260,,35.25,1111122 
COMPS,ioos:station:USF.COMPS:C10:1,2019-02-02T14:05:00Z,27.1690,-82.9260,,35.3,1111122 
COMPS,ioos:station:USF.COMPS:C10:1,2019-02-02T14:35:00Z,27.1690,-82.9260,,35.25,1111122 
COMPS,ioos:station:USF.COMPS:C10:1,2019-02-02T15:05:00Z,27.1690,-82.9260,,35.34,1111122 
COMPS,ioos:station:USF.COMPS:C10:1,2019-02-02T15:35:00Z,27.1690,-82.9260,,35.29,1111122 
COMPS,ioos:station:USF.COMPS:C10:1,2019-02-02T16:05:00Z,27.1690,-82.9260,,35.32,1111122 
COMPS,ioos:station:USF.COMPS:C10:1,2019-02-02T16:35:00Z,27.1690,-82.9260,,35.29,1111122 
COMPS,ioos:station:USF.COMPS:C10:1,2019-02-02T17:05:00Z,27.1690,-82.9260,,35.32,1111122 
COMPS,ioos:station:USF.COMPS:C10:1,2019-02-02T17:35:00Z,27.1690,-82.9260,,35.41,1111122 
COMPS,ioos:station:USF.COMPS:C10:1,2019-02-02T18:05:00Z,27.1690,-82.9260,,35.41,1111122 
COMPS,ioos:station:USF.COMPS:C10:1,2019-02-02T18:35:00Z,27.1690,-82.9260,,35.39,1111122 
COMPS,ioos:station:USF.COMPS:C10:1,2019-02-02T19:05:00Z,27.1690,-82.9260,,35.35,1111122 
COMPS,ioos:station:USF.COMPS:C10:1,2019-02-02T19:35:00Z,27.1690,-82.9260,,35.41,1111122 
COMPS,ioos:station:USF.COMPS:C10:1,2019-02-02T20:05:00Z,27.1690,-82.9260,,35.42,1111122 
COMPS,ioos:station:USF.COMPS:C10:1,2019-02-02T20:35:00Z,27.1690,-82.9260,,35.35,1111122 
COMPS,ioos:station:USF.COMPS:C10:1,2019-02-02T21:05:00Z,27.1690,-82.9260,,35.41,1111122 
COMPS,ioos:station:USF.COMPS:C10:1,2019-02-02T21:35:00Z,27.1690,-82.9260,,35.44,1111122 
COMPS,ioos:station:USF.COMPS:C10:1,2019-02-02T22:05:00Z,27.1690,-82.9260,,35.39,1111122 
COMPS,ioos:station:USF.COMPS:C10:1,2019-02-02T22:35:00Z,27.1690,-82.9260,,35.43,1111122 
COMPS,ioos:station:USF.COMPS:C10:1,2019-02-02T23:05:00Z,27.1690,-82.9260,,35.44,1111122 
COMPS,ioos:station:USF.COMPS:C10:1,2019-02-02T23:35:00Z,27.1690,-82.9260,,35.42,1111122 
COMPS,ioos:station:USF.COMPS:C10:1,2019-02-03T00:05:00Z,27.1690,-82.9260,,35.38,1111122 
COMPS,ioos:station:USF.COMPS:C10:1,2019-02-03T00:35:00Z,27.1690,-82.9260,,35.45,1111122 
COMPS,ioos:station:USF.COMPS:C10:1,2019-02-03T01:05:00Z,27.1690,-82.9260,,35.4,1111122 
COMPS,ioos:station:USF.COMPS:C10:1,2019-02-03T01:35:00Z,27.1690,-82.9260,,35.41,1111122 
COMPS,ioos:station:USF.COMPS:C10:1,2019-02-03T02:05:00Z,27.1690,-82.9260,,35.43,1111122 
COMPS,ioos:station:USF.COMPS:C10:1,2019-02-03T02:35:00Z,27.1690,-82.9260,,35.44,1111122 
COMPS,ioos:station:USF.COMPS:C10:1,2019-02-03T03:05:00Z,27.1690,-82.9260,,35.42,1111122 
COMPS,ioos:station:USF.COMPS:C10:1,2019-02-03T03:35:00Z,27.1690,-82.9260,,35.44,1111122 
COMPS,ioos:station:USF.COMPS:C10:1,2019-02-03T04:05:00Z,27.1690,-82.9260,,35.42,1111122 
COMPS,ioos:station:USF.COMPS:C10:1,2019-02-03T04:35:00Z,27.1690,-82.9260,,35.47,1111122 
COMPS,ioos:station:USF.COMPS:C10:1,2019-02-03T05:05:00Z,27.1690,-82.9260,,35.49,1111122 
COMPS,ioos:station:USF.COMPS:C10:1,2019-02-03T05:35:00Z,27.1690,-82.9260,,35.44,1111122 
COMPS,ioos:station:USF.COMPS:C10:1,2019-02-03T06:05:00Z,27.1690,-82.9260,,35.48,1111122 
COMPS,ioos:station:USF.COMPS:C10:1,2019-02-03T06:35:00Z,27.1690,-82.9260,,35.51,1111122 
COMPS,ioos:station:USF.COMPS:C10:1,2019-02-03T07:05:00Z,27.1690,-82.9260,,35.46,1111122 
COMPS,ioos:station:USF.COMPS:C10:1,2019-02-03T07:35:00Z,27.1690,-82.9260,,35.41,1111122 
COMPS,ioos:station:USF.COMPS:C10:1,2019-02-03T08:05:00Z,27.1690,-82.9260,,35.43,1111122 
COMPS,ioos:station:USF.COMPS:C10:1,2019-02-03T08:35:00Z,27.1690,-82.9260,,35.44,1111122 
COMPS,ioos:station:USF.COMPS:C10:1,2019-02-03T09:05:00Z,27.1690,-82.9260,,35.43,1111122 
COMPS,ioos:station:USF.COMPS:C10:1,2019-02-03T09:35:00Z,27.1690,-82.9260,,35.41,1111122 
COMPS,ioos:station:USF.COMPS:C10:1,2019-02-03T10:05:00Z,27.1690,-82.9260,,35.4,1111122 
COMPS,ioos:station:USF.COMPS:C10:1,2019-02-03T10:35:00Z,27.1690,-82.9260,,35.4,1111122 
COMPS,ioos:station:USF.COMPS:C10:1,2019-02-03T11:05:00Z,27.1690,-82.9260,,35.41,1111122 
COMPS,ioos:station:USF.COMPS:C10:1,2019-02-03T11:35:00Z,27.1690,-82.9260,,35.34,1111122 
COMPS,ioos:station:USF.COMPS:C10:1,2019-02-03T12:05:00Z,27.1690,-82.9260,,35.37,1111122 
COMPS,ioos:station:USF.COMPS:C10:1,2019-02-03T12:35:00Z,27.1690,-82.9260,,35.34,1111122 
COMPS,ioos:station:USF.COMPS:C10:1,2019-02-03T13:05:00Z,27.1690,-82.9260,,35.34,1111122 
COMPS,ioos:station:USF.COMPS:C10:1,2019-02-03T13:35:00Z,27.1690,-82.9260,,35.34,1111122 
COMPS,ioos:station:USF.COMPS:C10:1,2019-02-03T14:05:00Z,27.1690,-82.9260,,35.39,1111122 
COMPS,ioos:station:USF.COMPS:C10:1,2019-02-03T14:35:00Z,27.1690,-82.9260,,35.39,1111122 
COMPS,ioos:station:USF.COMPS:C10:1,2019-02-03T15:05:00Z,27.1690,-82.9260,,35.43,1111122 
COMPS,ioos:station:USF.COMPS:C10:1,2019-02-03T15:35:00Z,27.1690,-82.9260,,35.41,1111122 
COMPS,ioos:station:USF.COMPS:C10:1,2019-02-03T16:05:00Z,27.1690,-82.9260,,35.42,1111122 
COMPS,ioos:station:USF.COMPS:C10:1,2019-02-03T16:35:00Z,27.1690,-82.9260,,35.5,1111122 
COMPS,ioos:station:USF.COMPS:C10:1,2019-02-03T17:05:00Z,27.1690,-82.9260,,35.39,1111122 
COMPS,ioos:station:USF.COMPS:C10:1,2019-02-03T17:35:00Z,27.1690,-82.9260,,35.42,1111122 
COMPS,ioos:station:USF.COMPS:C10:1,2019-02-03T18:05:00Z,27.1690,-82.9260,,35.42,1111122 
COMPS,ioos:station:USF.COMPS:C10:1,2019-02-03T18:35:00Z,27.1690,-82.9260,,35.41,1111122 
COMPS,ioos:station:USF.COMPS:C10:1,2019-02-03T19:05:00Z,27.1690,-82.9260,,35.46,1111122 
COMPS,ioos:station:USF.COMPS:C10:1,2019-02-03T19:35:00Z,27.1690,-82.9260,,35.45,1111122 
COMPS,ioos:station:USF.COMPS:C10:1,2019-02-03T20:05:00Z,27.1690,-82.9260,,35.39,1111122 
COMPS,ioos:station:USF.COMPS:C10:1,2019-02-03T20:35:00Z,27.1690,-82.9260,,35.43,1111122 
COMPS,ioos:station:USF.COMPS:C10:1,2019-02-03T22:05:00Z,27.1690,-82.9260,,35.38,1111122 
COMPS,ioos:station:USF.COMPS:C10:1,2019-02-03T22:35:00Z,27.1690,-82.9260,,35.43,1111122 
COMPS,ioos:station:USF.COMPS:C10:1,2019-02-03T23:05:00Z,27.1690,-82.9260,,35.41,1111122 
COMPS,ioos:station:USF.COMPS:C10:1,2019-02-03T23:35:00Z,27.1690,-82.9260,,35.43,1111122 
COMPS,ioos:station:USF.COMPS:C10:1,2019-02-04T00:05:00Z,27.1690,-82.9260,,35.6,1111122 
COMPS,ioos:station:USF.COMPS:C10:1,2019-02-04T00:35:00Z,27.1690,-82.9260,,35.57,1111122 
COMPS,ioos:station:USF.COMPS:C10:1,2019-02-04T01:05:00Z,27.1690,-82.9260,,35.51,1111122 
COMPS,ioos:station:USF.COMPS:C10:1,2019-02-04T01:35:00Z,27.1690,-82.9260,,35.48,1111122 
COMPS,ioos:station:USF.COMPS:C10:1,2019-02-04T02:05:00Z,27.1690,-82.9260,,35.51,1111122 
COMPS,ioos:station:USF.COMPS:C10:1,2019-02-04T02:35:00Z,27.1690,-82.9260,,35.52,1111122 
COMPS,ioos:station:USF.COMPS:C10:1,2019-02-04T03:05:00Z,27.1690,-82.9260,,35.52,1111122 
COMPS,ioos:station:USF.COMPS:C10:1,2019-02-04T03:35:00Z,27.1690,-82.9260,,35.46,1111122 
COMPS,ioos:station:USF.COMPS:C10:1,2019-02-04T04:05:00Z,27.1690,-82.9260,,35.5,1111122 
COMPS,ioos:station:USF.COMPS:C10:1,2019-02-04T04:35:00Z,27.1690,-82.9260,,35.49,1111122 
COMPS,ioos:station:USF.COMPS:C10:1,2019-02-04T05:05:00Z,27.1690,-82.9260,,35.46,1111122 
COMPS,ioos:station:USF.COMPS:C10:1,2019-02-04T05:35:00Z,27.1690,-82.9260,,35.46,1111122 
COMPS,ioos:station:USF.COMPS:C10:1,2019-02-04T06:05:00Z,27.1690,-82.9260,,35.44,1111122 
COMPS,ioos:station:USF.COMPS:C10:1,2019-02-04T06:35:00Z,27.1690,-82.9260,,35.45,1111122 
COMPS,ioos:station:USF.COMPS:C10:1,2019-02-04T07:05:00Z,27.1690,-82.9260,,35.45,1111122 
COMPS,ioos:station:USF.COMPS:C10:1,2019-02-04T07:35:00Z,27.1690,-82.9260,,35.42,1111122 
COMPS,ioos:station:USF.COMPS:C10:1,2019-02-04T08:05:00Z,27.1690,-82.9260,,35.37,1111122 
COMPS,ioos:station:USF.COMPS:C10:1,2019-02-04T08:35:00Z,27.1690,-82.9260,,35.4,1111122 
COMPS,ioos:station:USF.COMPS:C10:1,2019-02-04T09:05:00Z,27.1690,-82.9260,,35.37,1111122 
COMPS,ioos:station:USF.COMPS:C10:1,2019-02-04T09:35:00Z,27.1690,-82.9260,,35.4,1111122 
COMPS,ioos:station:USF.COMPS:C10:1,2019-02-04T10:05:00Z,27.1690,-82.9260,,35.39,1111122 
COMPS,ioos:station:USF.COMPS:C10:1,2019-02-04T10:35:00Z,27.1690,-82.9260,,35.33,1111122 
COMPS,ioos:station:USF.COMPS:C10:1,2019-02-04T11:05:00Z,27.1690,-82.9260,,35.34,1111122 
COMPS,ioos:station:USF.COMPS:C10:1,2019-02-04T11:35:00Z,27.1690,-82.9260,,35.35,1111122 
COMPS,ioos:station:USF.COMPS:C10:1,2019-02-04T12:05:00Z,27.1690,-82.9260,,35.35,1111122 
COMPS,ioos:station:USF.COMPS:C10:1,2019-02-04T12:35:00Z,27.1690,-82.9260,,35.38,1111122 
COMPS,ioos:station:USF.COMPS:C10:1,2019-02-04T13:05:00Z,27.1690,-82.9260,,35.35,1111122 
COMPS,ioos:station:USF.COMPS:C10:1,2019-02-04T13:35:00Z,27.1690,-82.9260,,35.32,1111122 
COMPS,ioos:station:USF.COMPS:C10:1,2019-02-04T14:05:00Z,27.1690,-82.9260,,35.32,1111122 
COMPS,ioos:station:USF.COMPS:C10:1,2019-02-04T14:35:00Z,27.1690,-82.9260,,35.4,1111122 
COMPS,ioos:station:USF.COMPS:C10:1,2019-02-04T15:05:00Z,27.1690,-82.9260,,35.41,1111122 
COMPS,ioos:station:USF.COMPS:C10:1,2019-02-04T15:35:00Z,27.1690,-82.9260,,35.38,1111122 
COMPS,ioos:station:USF.COMPS:C10:1,2019-02-04T16:05:00Z,27.1690,-82.9260,,35.36,1111122 
COMPS,ioos:station:USF.COMPS:C10:1,2019-02-04T16:35:00Z,27.1690,-82.9260,,35.4,1111122 
COMPS,ioos:station:USF.COMPS:C10:1,2019-02-04T17:05:00Z,27.1690,-82.9260,,35.37,1111122 
COMPS,ioos:station:USF.COMPS:C10:1,2019-02-04T17:35:00Z,27.1690,-82.9260,,35.39,1111122 
COMPS,ioos:station:USF.COMPS:C10:1,2019-02-04T18:05:00Z,27.1690,-82.9260,,35.42,1111122 
COMPS,ioos:station:USF.COMPS:C10:1,2019-02-04T18:35:00Z,27.1690,-82.9260,,35.37,1111122 
COMPS,ioos:station:USF.COMPS:C10:1,2019-02-04T19:05:00Z,27.1690,-82.9260,,35.6,1111122 
COMPS,ioos:station:USF.COMPS:C10:1,2019-02-04T19:35:00Z,27.1690,-82.9260,,35.35,1111122 
COMPS,ioos:station:USF.COMPS:C10:1,2019-02-04T20:05:00Z,27.1690,-82.9260,,35.6,1111122 
COMPS,ioos:station:USF.COMPS:C10:1,2019-02-04T20:35:00Z,27.1690,-82.9260,,35.36,1111122 
COMPS,ioos:station:USF.COMPS:C10:1,2019-02-04T21:05:00Z,27.1690,-82.9260,,35.5,1111122 
COMPS,ioos:station:USF.COMPS:C10:1,2019-02-04T21:35:00Z,27.1690,-82.9260,,35.39,1111122 
COMPS,ioos:station:USF.COMPS:C10:1,2019-02-04T22:05:00Z,27.1690,-82.9260,,35.36,1111122 
COMPS,ioos:station:USF.COMPS:C10:1,2019-02-04T22:35:00Z,27.1690,-82.9260,,35.39,1111122 
COMPS,ioos:station:USF.COMPS:C10:1,2019-02-04T23:05:00Z,27.1690,-82.9260,,35.51,1111122 
COMPS,ioos:station:USF.COMPS:C10:1,2019-02-04T23:35:00Z,27.1690,-82.9260,,35.39,1111122 
COMPS,ioos:station:USF.COMPS:C10:1,2019-02-05T00:05:00Z,27.1690,-82.9260,,35.46,1111122 
COMPS,ioos:station:USF.COMPS:C10:1,2019-02-05T00:35:00Z,27.1690,-82.9260,,35.44,1111122 
COMPS,ioos:station:USF.COMPS:C10:1,2019-02-05T01:05:00Z,27.1690,-82.9260,,35.46,1111122 
COMPS,ioos:station:USF.COMPS:C10:1,2019-02-05T01:35:00Z,27.1690,-82.9260,,35.46,1111122 
COMPS,ioos:station:USF.COMPS:C10:1,2019-02-05T02:05:00Z,27.1690,-82.9260,,35.45,1111122 
COMPS,ioos:station:USF.COMPS:C10:1,2019-02-05T02:35:00Z,27.1690,-82.9260,,35.5,1111122 
COMPS,ioos:station:USF.COMPS:C10:1,2019-02-05T03:05:00Z,27.1690,-82.9260,,35.43,1111122 
COMPS,ioos:station:USF.COMPS:C10:1,2019-02-05T03:35:00Z,27.1690,-82.9260,,35.42,1111122 
COMPS,ioos:station:USF.COMPS:C10:1,2019-02-05T04:05:00Z,27.1690,-82.9260,,35.49,1111122 
COMPS,ioos:station:USF.COMPS:C10:1,2019-02-05T04:35:00Z,27.1690,-82.9260,,35.45,1111122 
COMPS,ioos:station:USF.COMPS:C10:1,2019-02-05T05:05:00Z,27.1690,-82.9260,,35.43,1111122 
COMPS,ioos:station:USF.COMPS:C10:1,2019-02-05T05:35:00Z,27.1690,-82.9260,,35.44,1111122 
COMPS,ioos:station:USF.COMPS:C10:1,2019-02-05T06:05:00Z,27.1690,-82.9260,,35.45,1111122 
COMPS,ioos:station:USF.COMPS:C10:1,2019-02-05T06:35:00Z,27.1690,-82.9260,,35.47,1111122 
COMPS,ioos:station:USF.COMPS:C10:1,2019-02-05T07:05:00Z,27.1690,-82.9260,,35.45,1111122 
COMPS,ioos:station:USF.COMPS:C10:1,2019-02-05T07:35:00Z,27.1690,-82.9260,,35.43,1111122 
COMPS,ioos:station:USF.COMPS:C10:1,2019-02-05T08:05:00Z,27.1690,-82.9260,,35.41,1111122 
COMPS,ioos:station:USF.COMPS:C10:1,2019-02-05T08:35:00Z,27.1690,-82.9260,,35.43,1111122 
COMPS,ioos:station:USF.COMPS:C10:1,2019-02-05T09:05:00Z,27.1690,-82.9260,,35.35,1111122 
COMPS,ioos:station:USF.COMPS:C10:1,2019-02-05T09:35:00Z,27.1690,-82.9260,,35.35,1111122 
COMPS,ioos:station:USF.COMPS:C10:1,2019-02-05T10:05:00Z,27.1690,-82.9260,,35.31,1111122 
COMPS,ioos:station:USF.COMPS:C10:1,2019-02-05T10:35:00Z,27.1690,-82.9260,,35.35,1111122 
COMPS,ioos:station:USF.COMPS:C10:1,2019-02-05T11:05:00Z,27.1690,-82.9260,,35.29,1111122 
COMPS,ioos:station:USF.COMPS:C10:1,2019-02-05T11:35:00Z,27.1690,-82.9260,,35.31,1111122 
COMPS,ioos:station:USF.COMPS:C10:1,2019-02-05T12:05:00Z,27.1690,-82.9260,,35.3,1111122 
COMPS,ioos:station:USF.COMPS:C10:1,2019-02-05T12:35:00Z,27.1690,-82.9260,,35.27,1111122 
COMPS,ioos:station:USF.COMPS:C10:1,2019-02-05T13:05:00Z,27.1690,-82.9260,,35.3,1111122 
COMPS,ioos:station:USF.COMPS:C10:1,2019-02-05T13:35:00Z,27.1690,-82.9260,,35.31,1111122 
COMPS,ioos:station:USF.COMPS:C10:1,2019-02-05T14:05:00Z,27.1690,-82.9260,,35.34,1111122 
COMPS,ioos:station:USF.COMPS:C10:1,2019-02-05T14:35:00Z,27.1690,-82.9260,,35.32,1111122 
COMPS,ioos:station:USF.COMPS:C10:1,2019-02-05T15:05:00Z,27.1690,-82.9260,,35.29,1111122 
COMPS,ioos:station:USF.COMPS:C10:1,2019-02-05T15:35:00Z,27.1690,-82.9260,,35.35,1111122 
COMPS,ioos:station:USF.COMPS:C10:1,2019-02-05T18:05:00Z,27.1690,-82.9260,,35.31,1111122 
COMPS,ioos:station:USF.COMPS:C10:1,2019-02-05T18:35:00Z,27.1690,-82.9260,,35.35,1111122 
COMPS,ioos:station:USF.COMPS:C10:1,2019-02-05T19:05:00Z,27.1690,-82.9260,,35.39,1111122 
COMPS,ioos:station:USF.COMPS:C10:1,2019-02-05T19:35:00Z,27.1690,-82.9260,,35.32,1111122 
COMPS,ioos:station:USF.COMPS:C10:1,2019-02-05T20:05:00Z,27.1690,-82.9260,,35.59,1111122 
COMPS,ioos:station:USF.COMPS:C10:1,2019-02-05T20:35:00Z,27.1690,-82.9260,,35.53,1111122 
COMPS,ioos:station:USF.COMPS:C10:1,2019-02-05T21:05:00Z,27.1690,-82.9260,,35.2,1111122 
COMPS,ioos:station:USF.COMPS:C10:1,2019-02-05T21:35:00Z,27.1690,-82.9260,,35.75,1111122 
COMPS,ioos:station:USF.COMPS:C10:1,2019-02-05T22:05:00Z,27.1690,-82.9260,,35.4,1111122 
COMPS,ioos:station:USF.COMPS:C10:1,2019-02-05T22:35:00Z,27.1690,-82.9260,,35.44,1111122 
COMPS,ioos:station:USF.COMPS:C10:1,2019-02-05T23:05:00Z,27.1690,-82.9260,,35.41,1111122 
COMPS,ioos:station:USF.COMPS:C10:1,2019-02-05T23:35:00Z,27.1690,-82.9260,,35.4,1111122 
COMPS,ioos:station:USF.COMPS:C10:1,2019-02-06T00:05:00Z,27.1690,-82.9260,,35.35,1111122 
COMPS,ioos:station:USF.COMPS:C10:1,2019-02-06T00:35:00Z,27.1690,-82.9260,,35.37,1111122 
COMPS,ioos:station:USF.COMPS:C10:1,2019-02-06T01:05:00Z,27.1690,-82.9260,,35.41,1111122 
COMPS,ioos:station:USF.COMPS:C10:1,2019-02-06T01:35:00Z,27.1690,-82.9260,,35.41,1111122 
COMPS,ioos:station:USF.COMPS:C10:1,2019-02-06T02:05:00Z,27.1690,-82.9260,,35.38,1111122 
COMPS,ioos:station:USF.COMPS:C10:1,2019-02-06T02:35:00Z,27.1690,-82.9260,,35.4,1111122 
COMPS,ioos:station:USF.COMPS:C10:1,2019-02-06T03:05:00Z,27.1690,-82.9260,,35.35,1111122 
COMPS,ioos:station:USF.COMPS:C10:1,2019-02-06T03:35:00Z,27.1690,-82.9260,,35.41,1111122 
COMPS,ioos:station:USF.COMPS:C10:1,2019-02-06T04:05:00Z,27.1690,-82.9260,,35.4,1111122 
COMPS,ioos:station:USF.COMPS:C10:1,2019-02-06T04:35:00Z,27.1690,-82.9260,,35.38,1111122 
COMPS,ioos:station:USF.COMPS:C10:1,2019-02-06T05:05:00Z,27.1690,-82.9260,,35.36,1111122 
COMPS,ioos:station:USF.COMPS:C10:1,2019-02-06T05:35:00Z,27.1690,-82.9260,,35.38,1111122 
COMPS,ioos:station:USF.COMPS:C10:1,2019-02-06T06:05:00Z,27.1690,-82.9260,,35.46,1111122 
COMPS,ioos:station:USF.COMPS:C10:1,2019-02-06T06:35:00Z,27.1690,-82.9260,,35.39,1111122 
COMPS,ioos:station:USF.COMPS:C10:1,2019-02-06T07:05:00Z,27.1690,-82.9260,,35.41,1111122 
COMPS,ioos:station:USF.COMPS:C10:1,2019-02-06T07:35:00Z,27.1690,-82.9260,,35.41,1111122 
COMPS,ioos:station:USF.COMPS:C10:1,2019-02-06T08:05:00Z,27.1690,-82.9260,,35.34,1111122 
COMPS,ioos:station:USF.COMPS:C10:1,2019-02-06T08:35:00Z,27.1690,-82.9260,,35.4,1111122 
COMPS,ioos:station:USF.COMPS:C10:1,2019-02-06T09:05:00Z,27.1690,-82.9260,,35.38,1111122 
COMPS,ioos:station:USF.COMPS:C10:1,2019-02-06T09:35:00Z,27.1690,-82.9260,,35.31,1111122 
COMPS,ioos:station:USF.COMPS:C10:1,2019-02-06T10:05:00Z,27.1690,-82.9260,,35.35,1111122 
COMPS,ioos:station:USF.COMPS:C10:1,2019-02-06T10:35:00Z,27.1690,-82.9260,,35.26,1111122 
COMPS,ioos:station:USF.COMPS:C10:1,2019-02-06T11:05:00Z,27.1690,-82.9260,,35.26,1111122 
COMPS,ioos:station:USF.COMPS:C10:1,2019-02-06T11:35:00Z,27.1690,-82.9260,,35.31,1111122 
COMPS,ioos:station:USF.COMPS:C10:1,2019-02-06T13:05:00Z,27.1690,-82.9260,,35.27,1111122 
COMPS,ioos:station:USF.COMPS:C10:1,2019-02-06T13:35:00Z,27.1690,-82.9260,,35.25,1111122 
COMPS,ioos:station:USF.COMPS:C10:1,2019-02-06T14:05:00Z,27.1690,-82.9260,,35.31,1111122 
COMPS,ioos:station:USF.COMPS:C10:1,2019-02-06T14:35:00Z,27.1690,-82.9260,,35.28,1111122 
COMPS,ioos:station:USF.COMPS:C10:1,2019-02-06T15:05:00Z,27.1690,-82.9260,,35.27,1111122 
COMPS,ioos:station:USF.COMPS:C10:1,2019-02-06T15:35:00Z,27.1690,-82.9260,,35.32,1111122 
COMPS,ioos:station:USF.COMPS:C10:1,2019-02-06T16:05:00Z,27.1690,-82.9260,,35.28,1111122 
COMPS,ioos:station:USF.COMPS:C10:1,2019-02-06T16:35:00Z,27.1690,-82.9260,,35.26,1111122 
COMPS,ioos:station:USF.COMPS:C10:1,2019-02-06T17:05:00Z,27.1690,-82.9260,,35.29,1111122 
COMPS,ioos:station:USF.COMPS:C10:1,2019-02-06T17:35:00Z,27.1690,-82.9260,,35.37,1111122 
COMPS,ioos:station:USF.COMPS:C10:1,2019-02-06T18:05:00Z,27.1690,-82.9260,,35.38,1111122 
COMPS,ioos:station:USF.COMPS:C10:1,2019-02-06T18:35:00Z,27.1690,-82.9260,,35.31,1111122 
COMPS,ioos:station:USF.COMPS:C10:1,2019-02-06T19:05:00Z,27.1690,-82.9260,,35.33,1111122 
COMPS,ioos:station:USF.COMPS:C10:1,2019-02-06T19:35:00Z,27.1690,-82.9260,,35.31,1111122 
COMPS,ioos:station:USF.COMPS:C10:1,2019-02-06T20:05:00Z,27.1690,-82.9260,,35.23,1111122 
COMPS,ioos:station:USF.COMPS:C10:1,2019-02-06T20:35:00Z,27.1690,-82.9260,,35.2,1111122 
COMPS,ioos:station:USF.COMPS:C10:1,2019-02-06T21:05:00Z,27.1690,-82.9260,,35.27,1111122 
COMPS,ioos:station:USF.COMPS:C10:1,2019-02-06T21:35:00Z,27.1690,-82.9260,,35.21,1111122 
COMPS,ioos:station:USF.COMPS:C10:1,2019-02-06T22:05:00Z,27.1690,-82.9260,,35.26,1111122 
COMPS,ioos:station:USF.COMPS:C10:1,2019-02-06T22:35:00Z,27.1690,-82.9260,,35.32,1111122 
COMPS,ioos:station:USF.COMPS:C10:1,2019-02-06T23:05:00Z,27.1690,-82.9260,,35.37,1111122 
COMPS,ioos:station:USF.COMPS:C10:1,2019-02-06T23:35:00Z,27.1690,-82.9260,,35.49,1111122 
COMPS,ioos:station:USF.COMPS:C10:1,2019-02-07T00:05:00Z,27.1690,-82.9260,,35.49,1111122 
COMPS,ioos:station:USF.COMPS:C10:1,2019-02-07T00:35:00Z,27.1690,-82.9260,,35.5,1111122 
COMPS,ioos:station:USF.COMPS:C10:1,2019-02-07T01:05:00Z,27.1690,-82.9260,,35.49,1111122 
COMPS,ioos:station:USF.COMPS:C10:1,2019-02-07T01:35:00Z,27.1690,-82.9260,,35.45,1111122 
COMPS,ioos:station:USF.COMPS:C10:1,2019-02-07T02:05:00Z,27.1690,-82.9260,,35.44,1111122 
COMPS,ioos:station:USF.COMPS:C10:1,2019-02-07T02:35:00Z,27.1690,-82.9260,,35.45,1111122 
COMPS,ioos:station:USF.COMPS:C10:1,2019-02-07T03:05:00Z,27.1690,-82.9260,,35.5,1111122 
COMPS,ioos:station:USF.COMPS:C10:1,2019-02-07T03:35:00Z,27.1690,-82.9260,,35.45,1111122 
COMPS,ioos:station:USF.COMPS:C10:1,2019-02-07T04:05:00Z,27.1690,-82.9260,,35.46,1111122 
COMPS,ioos:station:USF.COMPS:C10:1,2019-02-07T04:35:00Z,27.1690,-82.9260,,35.48,1111122 
COMPS,ioos:station:USF.COMPS:C10:1,2019-02-07T05:05:00Z,27.1690,-82.9260,,35.49,1111122 